QPF
0.00 0.00 0.00 0.00 0.00 0.00 0.00 0.00 0.00 0.00 0.01 0.02 0.01 0.02 0.03 0.04 0.04 0.04 0.03 0.03 0.04 0.05 0.04 0.02 0.01 0.00 0.00 0.00 0.00 0.00 0.00 0.00 0.00 0.00 0.00 0.00 0.00 0.00 0.00 0.00 0.00 0.00 0.00
0.00 0.00 0.00 0.00 0.00 0.00 0.00 0.01 0.00 0.00 0.02 0.02 0.01 0.02 0.04 0.02 0.03 0.03 0.03 0.03 0.04 0.06 0.06 0.03 0.01 0.00 0.00 0.00 0.00 0.00 0.00 0.00 0.00 0.00 0.00 0.00 0.00 0.00 0.00 0.00 0.00 0.00 0.00
0.00 0.00 0.00 0.00 0.00 0.00 0.00 0.02 0.03 0.07 0.08 0.06 0.02 0.02 0.02 0.04 0.01 0.02 0.03 0.03 0.04 0.03 0.02 0.01 0.01 0.00 0.00 0.00 0.00 0.00 0.00 0.00 0.00 0.00 0.00 0.00 0.00 0.00 0.00 0.00 0.00 0.00 0.00
0.00 0.00 0.00 0.00 0.01 0.00 0.00 0.02 0.10 0.14 0.08 0.01 0.01 0.00 0.01 0.03 0.01 0.01 0.02 0.02 0.01 0.01 0.01 0.00 0.00 0.00 0.00 0.00 0.00 0.00 0.00 0.00 0.00 0.00 0.00 0.00 0.00 0.00 0.00 0.00 0.00 0.00 0.00
0.00 0.00 0.00 0.00 0.03 0.09 0.08 0.09 0.11 0.04 0.00 0.00 0.00 0.00 0.00 0.02 0.01 0.02 0.01 0.00 0.01 0.00 0.00 0.00 0.00 0.00 0.00 0.00 0.00 0.00 0.00 0.00 0.00 0.00 0.00 0.00 0.00 0.00 0.00 0.00 0.00 0.00 0.00
0.00 0.00 0.00 0.05 0.10 0.15 0.13 0.13 0.06 0.00 0.00 0.00 0.00 0.00 0.00 0.00 0.00 0.00 0.00 0.00 0.01 0.00 0.00 0.00 0.00 0.00 0.00 0.00 0.00 0.00 0.00 0.00 0.00 0.00 0.00 0.00 0.00 0.00 0.00 0.00 0.00 0.00 0.00
0.00 0.00 0.00 0.02 0.12 0.18 0.13 0.10 0.03 0.00 0.00 0.00 0.00 0.00 0.00 0.00 0.00 0.00 0.00 0.00 0.00 0.00 0.00 0.00 0.00 0.00 0.00 0.00 0.00 0.00 0.00 0.00 0.00 0.00 0.00 0.00 0.00 0.00 0.00 0.00 0.00 0.00 0.00
0.00 0.00 0.00 0.00 0.04 0.08 0.09 0.03 0.00 0.00 0.00 0.00 0.00 0.00 0.00 0.00 0.00 0.00 0.00 0.00 0.00 0.00 0.00 0.00 0.00 0.00 0.00 0.00 0.00 0.00 0.00 0.00 0.00 0.00 0.00 0.00 0.00 0.00 0.00 0.00 0.00 0.00 0.00
0.00 0.00 0.00 0.00 0.03 0.03 0.04 0.01 0.00 0.00 0.00 0.00 0.00 0.00 0.01 0.00 0.00 0.00 0.00 0.00 0.00 0.00 0.00 0.00 0.00 0.00 0.00 0.00 0.00 0.00 0.00 0.00 0.00 0.00 0.00 0.00 0.00 0.00 0.00 0.00 0.00 0.00 0.00
0.00 0.00 0.00 0.00 0.03 0.04 0.02 0.02 0.00 0.00 0.00 0.00 0.00 0.00 0.00 0.00 0.00 0.00 0.00 0.00 0.00 0.00 0.00 0.00 0.00 0.00 0.00 0.00 0.00 0.00 0.00 0.00 0.00 0.00 0.00 0.00 0.00 0.00 0.00 0.00 0.00 0.00 0.00
0.00 0.00 0.00 0.00 0.02 0.01 0.03 0.01 0.00 0.01 0.00 0.00 0.00 0.00 0.00 0.00 0.00 0.00 0.00 0.00 0.00 0.00 0.00 0.00 0.00 0.00 0.00 0.00 0.00 0.00 0.00 0.00 0.00 0.00 0.00 0.00 0.00 0.00 0.00 0.00 0.00 0.00 0.00
0.00 0.00 0.00 0.00 0.01 0.02 0.01 0.00 0.00 0.00 0.00 0.00 0.00 0.00 0.00 0.00 0.00 0.00 0.00 0.00 0.00 0.00 0.00 0.00 0.00 0.00 0.00 0.00 0.00 0.00 0.00 0.00 0.00 0.00 0.00 0.00 0.00 0.00 0.00 0.00 0.00 0.00 0.00
0.00 0.00 0.00 0.00 0.00 0.00 0.00 0.00 0.00 0.00 0.00 0.00 0.00 0.00 0.00 0.00 0.00 0.00 0.00 0.00 0.00 0.00 0.00 0.00 0.00 0.00 0.00 0.00 0.00 0.00 0.00 0.00 0.00 0.00 0.00 0.00 0.00 0.00 0.00 0.00 0.00 0.00 0.00
0.00 0.00 0.00 0.00 0.00 0.00 0.00 0.00 0.00 0.00 0.00 0.00 0.00 0.00 0.00 0.00 0.00 0.00 0.00 0.00 0.00 0.00 0.00 0.00 0.00 0.00 0.00 0.00 0.00 0.00 0.00 0.00 0.00 0.00 0.00 0.00 0.00 0.00 0.00 0.00 0.00 0.00 0.00
0.00 0.00 0.00 0.00 0.00 0.00 0.00 0.00 0.00 0.00 0.00 0.00 0.00 0.00 0.00 0.00 0.00 0.00 0.00 0.00 0.00 0.00 0.00 0.00 0.00 0.00 0.00 0.00 0.00 0.00 0.00 0.00 0.00 0.00 0.00 0.00 0.00 0.00 0.00 0.00 0.00 0.00 0.00
0.00 0.00 0.00 0.00 0.00 0.00 0.00 0.00 0.00 0.00 0.00 0.00 0.00 0.00 0.00 0.00 0.00 0.00 0.00 0.00 0.00 0.00 0.00 0.00 0.00 0.00 0.00 0.00 0.00 0.00 0.00 0.00 0.00 0.00 0.00 0.00 0.00 0.00 0.00 0.00 0.00 0.00 0.00
0.00 0.00 0.00 0.00 0.00 0.00 0.00 0.00 0.00 0.00 0.00 0.00 0.00 0.00 0.00 0.00 0.00 0.00 0.00 0.00 0.00 0.00 0.00 0.00 0.00 0.00 0.00 0.00 0.00 0.00 0.00 0.00 0.00 0.00 0.00 0.00 0.00 0.00 0.00 0.00 0.00 0.00 0.00
0.00 0.00 0.00 0.00 0.00 0.00 0.00 0.00 0.00 0.00 0.00 0.00 0.00 0.00 0.00 0.00 0.00 0.00 0.00 0.00 0.00 0.00 0.00 0.00 0.00 0.00 0.00 0.00 0.00 0.00 0.00 0.00 0.00 0.00 0.00 0.00 0.00 0.00 0.00 0.00 0.00 0.00 0.00
0.00 0.00 0.00 0.00 0.00 0.00 0.00 0.00 0.00 0.00 0.00 0.00 0.00 0.00 0.00 0.00 0.00 0.00 0.00 0.00 0.00 0.00 0.00 0.00 0.00 0.00 0.00 0.00 0.00 0.00 0.00 0.00 0.00 0.00 0.00 0.00 0.00 0.00 0.00 0.00 0.00 0.00 0.00
0.00 0.00 0.00 0.00 0.00 0.00 0.00 0.00 0.00 0.00 0.00 0.00 0.00 0.00 0.00 0.00 0.00 0.00 0.00 0.00 0.00 0.00 0.00 0.00 0.00 0.00 0.00 0.00 0.00 0.00 0.00 0.00 0.00 0.00 0.00 0.00 0.00 0.00 0.00 0.00 0.00 0.00 0.00
0.00 0.00 0.00 0.00 0.00 0.00 0.00 0.00 0.00 0.00 0.00 0.00 0.00 0.00 0.00 0.00 0.00 0.00 0.00 0.00 0.00 0.00 0.00 0.00 0.00 0.00 0.00 0.00 0.00 0.00 0.00 0.00 0.00 0.00 0.00 0.00 0.00 0.00 0.00 0.00 0.00 0.00 0.00
0.00 0.00 0.00 0.00 0.00 0.00 0.00 0.00 0.00 0.00 0.00 0.00 0.00 0.00 0.00 0.00 0.00 0.00 0.00 0.00 0.00 0.00 0.00 0.00 0.00 0.00 0.00 0.00 0.00 0.00 0.00 0.00 0.00 0.00 0.00 0.00 0.00 0.00 0.00 0.00 0.00 0.00 0.00
0.00 0.00 0.00 0.00 0.00 0.00 0.00 0.00 0.00 0.00 0.00 0.00 0.00 0.00 0.00 0.00 0.00 0.00 0.00 0.00 0.00 0.00 0.00 0.00 0.00 0.00 0.00 0.00 0.00 0.00 0.00 0.00 0.00 0.00 0.00 0.00 0.00 0.00 0.00 0.00 0.00 0.00 0.00
0.00 0.00 0.00 0.00 0.00 0.00 0.00 0.00 0.00 0.00 0.00 0.00 0.00 0.00 0.00 0.00 0.00 0.00 0.00 0.00 0.00 0.00 0.00 0.00 0.00 0.00 0.00 0.00 0.00 0.00 0.00 0.00 0.00 0.00 0.00 0.00 0.00 0.00 0.00 0.00 0.00 0.00 0.00
0.00 0.00 0.00 0.00 0.00 0.00 0.00 0.00 0.00 0.00 0.00 0.00 0.00 0.00 0.00 0.00 0.00 0.00 0.00 0.00 0.00 0.00 0.00 0.00 0.00 0.00 0.00 0.00 0.00 0.00 0.00 0.00 0.00 0.00 0.00 0.00 0.00 0.00 0.00 0.00 0.00 0.00 0.00
0.00 0.00 0.00 0.00 0.00 0.00 0.00 0.00 0.00 0.00 0.00 0.00 0.00 0.00 0.00 0.00 0.00 0.00 0.00 0.00 0.00 0.00 0.00 0.00 0.00 0.00 0.00 0.00 0.00 0.00 0.00 0.00 0.00 0.00 0.00 0.00 0.00 0.00 0.00 0.00 0.00 0.00 0.00
MSLP
1003.28 1002.43 1001.38 1000.82 1000.44 1000.28 999.89 999.35 998.92 998.74 998.78 999.43 1000.04 1000.55 1001.32 1002.15 1002.96 1003.96 1004.93 1005.71 1006.91 1008.01 1008.55 1009.05 1009.80 1010.22 1010.84 1011.32 1011.54 1011.98 1012.55 1012.95 1013.68 1014.42 1014.45 1014.24 1014.36 1014.23 1013.98 1013.68 1013.16 1012.56 1012.06
1002.84 1001.86 1000.90 1000.06 999.50 999.21 998.56 998.18 997.75 997.64 997.99 998.53 999.35 999.86 1000.85 1001.91 1002.88 1003.83 1004.90 1005.87 1006.85 1008.25 1008.85 1009.43 1010.14 1010.90 1011.24 1011.51 1012.20 1012.86 1013.34 1013.32 1013.95 1014.21 1014.35 1014.38 1014.50 1014.48 1014.26 1013.66 1013.17 1012.50 1011.90
1002.24 1001.27 1000.16 999.32 998.58 998.01 997.42 996.95 996.65 996.88 997.49 998.03 998.75 999.43 1000.90 1002.06 1002.86 1003.91 1004.87 1006.05 1007.14 1007.96 1008.86 1010.29 1010.78 1011.32 1011.83 1012.22 1013.11 1013.45 1013.83 1014.30 1014.14 1014.34 1014.66 1014.78 1014.74 1014.57 1014.06 1013.62 1013.09 1012.15 1011.43
1001.43 1000.48 999.47 998.54 997.62 996.76 996.25 996.05 996.13 996.28 996.98 997.94 998.92 999.73 1001.13 1002.35 1003.09 1004.22 1005.37 1006.62 1007.55 1008.09 1008.94 1010.58 1011.18 1011.80 1012.11 1012.86 1013.37 1013.81 1014.50 1014.61 1014.53 1015.05 1015.11 1015.02 1014.91 1014.67 1014.34 1013.50 1012.34 1011.94 1011.06
1000.85 999.72 998.62 997.59 996.53 995.90 995.51 995.68 996.14 996.31 997.16 998.55 999.77 1001.04 1002.13 1002.89 1003.70 1004.61 1005.67 1006.86 1007.05 1008.20 1010.39 1010.96 1012.24 1012.35 1012.58 1012.97 1013.80 1014.57 1014.50 1014.74 1015.16 1015.34 1015.36 1015.30 1015.03 1014.68 1014.24 1013.62 1012.85 1011.96 1011.00
1000.46 998.96 997.35 996.72 995.98 995.12 995.20 995.87 996.61 997.23 998.29 999.51 1000.71 1001.78 1003.38 1004.21 1004.85 1005.76 1005.78 1007.33 1008.47 1008.52 1011.32 1011.78 1012.31 1012.58 1013.14 1013.69 1014.50 1014.70 1014.56 1015.09 1015.69 1015.66 1015.77 1015.44 1015.11 1014.77 1014.16 1013.72 1013.04 1012.30 1011.33
1000.34 998.78 997.32 996.75 996.39 996.14 996.13 996.89 997.60 998.58 999.57 1000.95 1002.10 1002.72 1004.51 1005.50 1005.54 1006.55 1006.80 1008.73 1009.62 1010.99 1011.77 1012.43 1012.66 1013.36 1013.88 1014.61 1015.03 1014.89 1015.34 1015.84 1016.20 1015.95 1015.92 1015.54 1015.47 1014.72 1014.46 1013.57 1013.12 1012.73 1012.11
1000.38 999.36 998.32 997.74 997.60 997.66 997.99 998.35 999.25 1000.24 1000.98 1002.00 1003.45 1004.25 1005.30 1006.60 1006.71 1007.62 1008.89 1009.55 1010.97 1012.42 1013.19 1013.23 1013.66 1014.20 1014.83 1015.09 1015.18 1015.59 1015.98 1016.61 1016.32 1015.74 1015.78 1015.72 1015.28 1014.67 1014.46 1013.98 1013.24 1012.43 1011.72
1000.90 1000.08 999.50 999.06 998.70 998.88 999.40 999.95 1000.63 1001.28 1002.62 1003.82 1004.82 1005.34 1005.98 1007.64 1008.02 1008.41 1010.44 1010.48 1012.13 1013.95 1013.75 1014.12 1014.59 1015.24 1015.34 1015.49 1015.63 1016.03 1016.76 1016.67 1016.04 1015.82 1015.67 1015.30 1014.80 1014.45 1014.10 1013.70 1012.98 1012.30 1011.78
1001.70 1000.92 1000.47 1000.28 1000.07 1000.12 1000.66 1001.15 1002.03 1002.57 1003.80 1005.03 1006.10 1007.02 1007.69 1008.34 1009.98 1010.22 1011.19 1012.00 1013.19 1013.96 1014.53 1015.51 1015.70 1016.13 1016.15 1016.04 1016.46 1016.74 1016.57 1016.58 1016.34 1015.81 1015.24 1014.78 1014.43 1014.28 1013.77 1013.53 1013.08 1012.54 1012.45
1002.77 1002.07 1001.70 1001.67 1001.53 1002.02 1002.12 1002.63 1003.15 1003.97 1004.95 1006.54 1007.32 1008.75 1009.73 1010.16 1010.85 1011.10 1012.19 1012.71 1013.35 1014.48 1015.28 1015.66 1016.73 1017.00 1016.89 1017.17 1017.22 1017.00 1016.50 1016.61 1016.49 1015.92 1015.21 1014.62 1014.40 1014.24 1013.87 1013.41 1012.98 1012.73 1012.51
1003.71 1003.16 1002.90 1002.88 1003.13 1003.83 1003.36 1004.08 1004.70 1005.33 1006.14 1007.69 1008.44 1009.86 1011.15 1011.31 1012.04 1012.72 1012.76 1013.28 1014.68 1015.16 1016.14 1017.02 1017.43 1017.75 1017.92 1017.50 1017.33 1017.10 1016.69 1016.62 1016.00 1015.48 1015.17 1015.06 1014.79 1014.62 1013.90 1013.24 1012.68 1012.53 1012.24
1004.88 1004.60 1004.42 1004.52 1004.94 1005.21 1005.20 1005.51 1006.32 1006.86 1007.52 1009.06 1009.81 1011.15 1012.02 1012.92 1013.50 1013.56 1014.13 1015.44 1016.36 1016.56 1016.87 1017.66 1018.23 1017.96 1017.85 1017.44 1017.39 1017.43 1016.85 1016.46 1016.28 1015.94 1015.93 1015.75 1015.57 1014.85 1013.98 1013.24 1012.59 1012.19 1011.70
1006.00 1005.96 1005.90 1006.16 1006.68 1006.92 1007.18 1007.48 1008.06 1008.84 1009.03 1009.78 1010.70 1011.35 1012.38 1013.39 1013.88 1014.72 1015.55 1016.66 1017.16 1017.02 1017.84 1018.32 1018.15 1018.18 1018.06 1017.89 1017.85 1017.36 1017.11 1017.08 1016.87 1016.80 1016.81 1016.42 1015.40 1014.40 1014.13 1013.82 1013.07 1012.13 1011.33
1007.45 1007.40 1007.56 1007.78 1008.21 1008.63 1008.73 1009.18 1009.45 1010.05 1009.89 1009.83 1010.85 1011.26 1012.16 1013.74 1014.80 1015.45 1016.10 1017.20 1017.32 1017.58 1017.66 1018.24 1018.30 1018.40 1018.33 1018.41 1017.99 1017.66 1017.89 1017.58 1017.86 1017.49 1017.36 1016.45 1015.92 1015.25 1014.85 1014.44 1013.57 1012.76 1011.91
1008.63 1008.77 1009.01 1009.30 1009.80 1010.04 1010.30 1010.88 1011.26 1011.34 1011.34 1011.56 1011.88 1012.26 1013.86 1014.73 1015.24 1015.94 1016.62 1016.91 1017.56 1017.92 1018.00 1018.38 1019.25 1019.25 1019.02 1019.14 1018.63 1018.81 1018.95 1018.82 1018.60 1018.08 1017.05 1016.96 1016.54 1016.09 1015.66 1014.71 1013.82 1013.18 1012.37
1009.85 1010.08 1010.53 1010.81 1011.19 1011.42 1011.35 1011.17 1011.73 1012.88 1012.70 1012.90 1013.44 1013.97 1014.71 1015.25 1016.00 1016.66 1017.23 1018.06 1018.60 1018.51 1018.84 1019.49 1019.66 1019.69 1019.92 1019.77 1019.73 1020.12 1019.75 1019.85 1019.02 1018.43 1018.33 1017.71 1017.24 1016.52 1015.91 1014.85 1013.95 1013.35 1012.69
1011.18 1011.49 1011.77 1012.16 1012.32 1012.23 1012.02 1012.14 1012.60 1013.16 1014.14 1015.28 1015.77 1016.04 1016.47 1016.87 1017.55 1018.23 1018.72 1019.04 1019.56 1020.02 1020.48 1020.58 1020.64 1020.73 1020.71 1020.82 1020.92 1021.08 1020.84 1019.91 1019.47 1019.49 1019.30 1018.64 1017.80 1017.00 1016.11 1015.26 1014.44 1013.92 1013.32
1012.66 1012.88 1013.04 1013.22 1013.14 1012.99 1013.20 1013.73 1014.41 1015.03 1015.73 1016.69 1017.58 1018.29 1018.61 1018.71 1019.00 1019.47 1019.72 1020.03 1020.67 1021.06 1021.30 1021.44 1021.36 1021.92 1021.67 1021.67 1021.68 1021.89 1020.99 1020.45 1020.47 1020.51 1019.87 1019.52 1018.18 1017.17 1016.42 1015.87 1015.11 1014.50 1013.99
1013.80 1014.01 1014.17 1014.22 1014.17 1014.52 1014.88 1015.24 1015.82 1016.47 1017.21 1018.03 1018.84 1019.38 1019.46 1019.42 1020.34 1020.92 1021.19 1021.51 1022.04 1022.21 1022.22 1022.38 1022.61 1022.64 1022.32 1022.52 1022.49 1021.91 1021.21 1021.25 1021.48 1021.06 1020.30 1019.58 1018.56 1017.60 1016.80 1016.26 1015.76 1015.13 1014.59
1014.77 1014.99 1015.19 1015.29 1015.48 1015.68 1016.10 1016.64 1017.30 1017.90 1018.72 1019.43 1019.97 1020.36 1020.38 1020.68 1021.53 1022.12 1022.56 1022.94 1022.93 1023.30 1023.56 1023.61 1023.69 1023.63 1023.48 1023.27 1022.78 1022.29 1022.43 1022.42 1022.00 1021.32 1020.64 1019.83 1018.83 1017.91 1017.44 1016.82 1016.37 1015.82 1015.20
1015.46 1015.69 1015.93 1016.19 1016.51 1016.79 1017.21 1017.79 1018.42 1019.07 1019.75 1020.27 1020.90 1021.35 1021.66 1022.38 1022.76 1023.56 1023.77 1024.12 1024.37 1024.49 1024.60 1024.65 1024.46 1024.94 1024.20 1023.62 1023.42 1023.36 1023.55 1022.99 1022.20 1021.64 1021.04 1020.12 1019.16 1018.64 1017.92 1017.32 1016.86 1016.34 1015.67
1016.15 1016.22 1016.57 1017.08 1017.50 1017.82 1018.24 1018.80 1019.67 1020.19 1020.67 1021.26 1021.68 1022.42 1023.30 1024.07 1024.24 1024.59 1025.17 1025.22 1025.32 1025.53 1025.70 1025.64 1025.28 1025.14 1024.49 1024.31 1024.15 1024.31 1024.16 1023.48 1022.75 1022.32 1021.46 1020.47 1019.79 1019.37 1018.65 1018.00 1017.59 1016.96 1016.31
1016.90 1016.96 1017.38 1017.86 1018.41 1018.79 1019.46 1020.25 1020.80 1021.29 1021.76 1022.38 1023.11 1023.81 1024.55 1024.87 1025.20 1025.84 1026.19 1026.37 1026.26 1026.72 1026.79 1026.41 1025.83 1025.43 1025.47 1024.99 1024.98 1024.83 1024.47 1023.81 1023.19 1022.61 1021.70 1021.08 1020.58 1020.04 1019.34 1018.85 1018.41 1017.91 1017.19
1017.65 1017.70 1018.01 1018.56 1019.22 1019.79 1020.41 1020.88 1021.36 1022.19 1022.90 1023.53 1024.26 1024.62 1025.32 1025.68 1026.27 1026.92 1027.32 1027.58 1027.41 1027.23 1027.12 1027.33 1027.02 1026.66 1025.96 1025.78 1025.74 1025.30 1024.76 1024.38 1023.81 1023.14 1022.22 1021.78 1021.25 1020.77 1020.18 1019.78 1019.33 1018.78 1018.10
1018.18 1018.32 1018.70 1019.12 1019.79 1020.34 1020.94 1021.85 1022.60 1023.10 1023.90 1024.69 1025.44 1025.78 1026.05 1026.79 1026.86 1027.74 1027.73 1028.04 1027.94 1028.17 1028.42 1028.10 1027.48 1027.40 1026.86 1026.60 1026.42 1025.91 1025.43 1024.94 1024.39 1023.72 1022.88 1022.57 1021.96 1021.53 1021.00 1020.74 1020.28 1019.76 1019.26
Thickness
5601 5605 5609 5609 5607 5608 5613 5625 5638 5649 5659 5661 5664 5669 5672 5671 5671 5672 5675 5676 5670 5668 5669 5669 5666 5668 5665 5663 5661 5656 5647 5639 5627 5616 5609 5605 5596 5590 5586 5583 5581 5578 5574
5591 5593 5597 5599 5598 5600 5607 5617 5630 5641 5651 5654 5660 5666 5666 5665 5662 5665 5667 5667 5666 5658 5658 5658 5655 5654 5656 5655 5649 5639 5630 5625 5618 5612 5603 5596 5588 5582 5579 5577 5573 5571 5566
5583 5584 5586 5589 5590 5597 5606 5616 5625 5633 5639 5647 5654 5660 5657 5655 5654 5657 5659 5657 5653 5654 5650 5642 5644 5644 5644 5641 5632 5625 5619 5611 5609 5603 5594 5585 5579 5576 5573 5569 5564 5562 5557
5577 5577 5577 5580 5587 5599 5607 5616 5621 5628 5635 5641 5644 5650 5645 5643 5645 5646 5645 5642 5641 5638 5641 5634 5634 5634 5633 5626 5622 5616 5606 5603 5598 5589 5582 5577 5573 5569 5565 5563 5561 5553 5549
5570 5570 5571 5577 5589 5597 5605 5612 5616 5625 5630 5628 5630 5631 5630 5633 5635 5636 5634 5634 5634 5633 5622 5625 5620 5621 5621 5620 5612 5602 5599 5594 5586 5579 5574 5569 5567 5561 5556 5554 5550 5544 5538
5565 5569 5576 5582 5588 5597 5601 5606 5609 5613 5615 5616 5618 5620 5616 5617 5621 5621 5628 5624 5617 5626 5612 5613 5612 5611 5610 5606 5599 5594 5593 5584 5574 5570 5564 5562 5558 5553 5551 5545 5540 5535 5528
5560 5568 5576 5581 5583 5589 5594 5596 5598 5600 5602 5600 5601 5606 5600 5601 5611 5611 5615 5605 5607 5603 5603 5601 5602 5599 5597 5592 5588 5587 5579 5570 5563 5562 5557 5554 5547 5547 5540 5537 5529 5520 5512
5559 5564 5571 5574 5576 5580 5582 5584 5585 5586 5589 5590 5588 5591 5592 5589 5598 5601 5596 5597 5594 5587 5586 5590 5590 5589 5585 5583 5580 5573 5566 5557 5557 5559 5552 5546 5543 5541 5532 5525 5517 5511 5506
5552 5556 5559 5564 5569 5571 5571 5570 5573 5577 5575 5576 5577 5583 5585 5579 5587 5589 5583 5589 5583 5572 5578 5576 5577 5574 5575 5572 5569 5564 5554 5553 5555 5552 5548 5545 5542 5536 5526 5516 5509 5500 5490
5541 5547 5553 5555 5558 5562 5562 5563 5563 5569 5568 5569 5568 5568 5571 5574 5573 5576 5574 5576 5571 5570 5568 5562 5563 5561 5562 5562 5558 5554 5554 5551 5548 5547 5547 5544 5539 5528 5520 5508 5499 5490 5478
5536 5539 5545 5545 5550 5550 5554 5557 5561 5562 5563 5557 5558 5555 5556 5563 5566 5570 5567 5568 5569 5563 5559 5559 5552 5550 5552 5549 5547 5549 5552 5547 5542 5542 5542 5540 5531 5520 5509 5500 5490 5480 5471
5532 5535 5538 5542 5542 5539 5548 5548 5551 5554 5556 5549 5554 5548 5548 5554 5553 5553 5561 5562 5553 5554 5548 5545 5544 5541 5540 5544 5545 5545 5545 5542 5544 5543 5537 5529 5518 5506 5502 5494 5486 5474 5469
5529 5532 5532 5532 5531 5534 5540 5542 5540 5542 5547 5543 5545 5541 5541 5539 5540 5546 5547 5540 5537 5541 5542 5536 5533 5537 5538 5544 5541 5537 5540 5541 5537 5533 5525 5515 5504 5498 5492 5486 5478 5474 5473
5526 5527 5527 5525 5524 5526 5533 5533 5533 5535 5541 5541 5538 5538 5537 5536 5537 5536 5536 5532 5531 5537 5532 5530 5533 5534 5535 5537 5535 5536 5537 5532 5528 5521 5511 5502 5500 5496 5485 5474 5471 5473 5476
5518 5519 5519 5518 5518 5518 5523 5527 5530 5532 5538 5546 5544 5547 5545 5536 5533 5535 5535 5527 5531 5532 5534 5531 5531 5531 5532 5529 5532 5533 5526 5525 5514 5509 5498 5496 5492 5484 5474 5467 5468 5468 5471
5514 5515 5514 5511 5512 5515 5517 5518 5519 5525 5531 5535 5537 5540 5533 5532 5535 5534 5532 5532 5530 5530 5532 5530 5522 5523 5525 5522 5525 5520 5514 5510 5504 5499 5498 5490 5481 5471 5463 5466 5467 5466 5468
5514 5513 5511 5510 5511 5515 5520 5528 5528 5522 5528 5531 5532 5534 5533 5535 5532 5530 5529 5524 5521 5525 5524 5520 5520 5520 5516 5516 5513 5506 5506 5498 5498 5492 5486 5481 5470 5463 5461 5466 5468 5466 5468
5512 5512 5511 5511 5514 5520 5527 5530 5529 5530 5526 5522 5522 5524 5524 5525 5521 5518 5516 5516 5514 5511 5509 5511 5511 5509 5508 5505 5501 5495 5492 5495 5489 5482 5475 5468 5461 5457 5461 5464 5466 5464 5465
5506 5506 5509 5510 5513 5520 5522 5521 5519 5518 5517 5514 5510 5508 5508 5509 5509 5507 5508 5509 5506 5505 5504 5503 5506 5499 5500 5497 5493 5487 5491 5487 5480 5472 5465 5454 5457 5458 5460 5460 5461 5461 5460
5502 5503 5505 5508 5513 5513 5514 5514 5514 5512 5510 5507 5503 5500 5502 5506 5501 5499 5500 5500 5496 5496 5498 5497 5495 5494 5494 5489 5486 5487 5486 5478 5470 5464 5458 5454 5455 5457 5460 5459 5457 5459 5459
5500 5501 5501 5505 5507 5510 5510 5508 5505 5503 5499 5495 5494 5494 5497 5498 5494 5492 5490 5488 5491 5488 5487 5486 5485 5484 5483 5482 5482 5481 5473 5467 5463 5458 5454 5453 5455 5458 5458 5458 5456 5457 5458
5498 5500 5503 5504 5505 5504 5504 5502 5498 5495 5491 5491 5489 5489 5489 5486 5488 5482 5483 5480 5478 5479 5479 5476 5479 5472 5476 5477 5474 5469 5462 5461 5459 5454 5451 5452 5454 5455 5457 5457 5457 5457 5459
5495 5498 5499 5498 5498 5498 5499 5496 5490 5489 5489 5486 5486 5483 5477 5474 5476 5475 5470 5473 5472 5470 5469 5469 5470 5469 5471 5468 5466 5461 5456 5455 5453 5449 5449 5450 5451 5451 5454 5455 5455 5457 5458
5491 5494 5494 5494 5493 5493 5490 5486 5483 5481 5482 5479 5476 5473 5469 5470 5470 5466 5464 5464 5466 5460 5459 5463 5467 5465 5458 5461 5459 5456 5452 5451 5449 5446 5446 5447 5447 5449 5452 5453 5453 5454 5456
5485 5489 5491 5490 5488 5487 5485 5484 5482 5477 5473 5472 5468 5468 5465 5466 5462 5457 5455 5453 5456 5458 5458 5453 5453 5452 5456 5455 5452 5449 5449 5446 5443 5443 5443 5443 5444 5445 5448 5449 5450 5451 5454
5480 5483 5485 5485 5483 5483 5480 5475 5471 5471 5466 5462 5459 5460 5461 5457 5459 5451 5453 5450 5452 5448 5445 5446 5448 5445 5448 5448 5445 5444 5443 5440 5438 5438 5439 5438 5441 5442 5444 5445 5446 5448 5450